www.pogodaiklimat.ru

Погода и климат >> Архив погоды >> Россия >> Якутия >> Эйк


ПОГОДА в Эйке

  • Прогноз погоды в Эйке
  • Монитор погоды в Эйке

АРХИВ ПОГОДЫ в Эйке

Время (UTC), дата Ветер
(напр.,м/с)
 
Видим.   Явления Облачность Т
(С)
Тd
(С)
f
(%)
Тe
(С)
Тes
(С)
Комфортность P
(гПа)
Po
(гПа)
Тmin
(С)
Tmax
(С)
R
(мм)
R24
(мм)
S
(см)
06 13.09 З 6-10
{13}
4000 м дождь со снегом 10/10 600 м
[Frnb Ns]
+0.2 +0.2 100 -7 -7 994.1 957.3
09 13.09 З 7-12
{13}
4000 м дождь со снегом 10/10 600 м
[Frnb Ns]
-0.3 -0.3 100 -8 -8 995.6 958.6
12 13.09 З 7-12
{13}
4000 м дождь со снегом 10/10 600 м
[Frnb Ns]
-1.4 -1.3 100 -9 -9 996.3 959.1 +7.6 10
15 13.09 З 8-12
{14}
4000 м снег {метель} 10/10 600 м
[Frnb Ns]
-1.8 -2.0 99 -10 -10 995.2 958.1
18 13.09 З 7-12
{14}
4000 м снег {метель} 10/10 600 м
[Frnb Ns]
-2.0 -2.3 98 -10 -10 994.6 957.5
21 13.09 ЮЗ 8-11
{12}
4000 м снег {метель} 10/10 600 м
[Frnb Ns]
-1.4 -1.9 96 -10 -10 993.5 956.5
00 14.09 ЮЗ 7-10
{12}
50 км в посл. час снег {метель} 8/0
[Ac As]
-1.9 -3.3 90 -10 -9 994.4 957.3 -2.2 7 7
03 14.09 Ю 5
{11}
50 км ясно +0.7 -2.7 78 -5 -3 995.0 958.2
06 14.09 Ю 5 50 км 4/4 600 м
[Sc]
+3.4 -4.0 58 -1 -0 995.2 958.9
09 14.09 Ю 5 50 км 3/3 600 м
[Sc]
+1.4 -4.5 65 -4 -4 998.7 961.8
12 14.09 Ю 3 50 км ясно +0.2 -5.7 65 -4 -4 1000.2 963.1 +3.6
15 14.09 В 2 50 км ясно -4.4 -7.5 79 -8 -8 1001.7 963.9
18 14.09 В 1 50 км ?/? -6.2 -8.1 86 -9 -9 1002.7 964.7
21 14.09 В 1 10 км слаб. снег 10/0
[Ac As]
-2.0 -2.3 98 -4 -4 1001.9 964.6
00 15.09 ЮВ 3 50 км в посл. час снег 10/0
[As op]
-3.6 -3.8 99 -9 -9 1004.2 966.5 -6.4 0.2 5
03 15.09 В 3 50 км 9/5 600 м
[Sc Ac As]
-0.6 -1.8 92 -6 -5 1003.9 966.6
06 15.09 В 3 50 км 10/6 600 м
[Frnb As trans]
-0.2 -2.3 86 -5 -5 1004.7 967.3
09 15.09 С 2 4000 м снег 10/10 600 м
[Frnb Ns]
-1.3 -1.8 96 -5 -5 1004.5 967.0
12 15.09 СЗ 2 4000 м снег 10/10 600 м
[Frnb Ns]
-1.0 -1.0 100 -5 -5 1003.2 965.8 +0.6 6
15 15.09 З 2 4000 м снег 10/10 600 м
[Frnb Ns]
-1.0 -1.1 99 -5 -5 1000.9 963.7
18 15.09 З 2 4000 м снег 10/10 600 м
[Frnb Ns]
-1.2 -1.4 99 -5 -5 1000.0 962.7
21 15.09 ЮВ 4 50 км {снег} 10/10 600 м
[Frnb Ns]
-2.2 -2.5 98 -8 -8 1003.8 966.2
00 16.09 ЮВ 4 50 км в посл. час снег 10/10 600 м
[Frnb Ns]
-2.2 -2.2 100 -8 -8 1005.1 967.5 -2.6 5 17
03 16.09 ЮВ 3 50 км 10/10 600 м
[Frnb Ns]
+0.6 -1.2 88 -4 -4 1006.5 969.1
06 16.09 ЮВ 3 50 км 10/10 600 м
[Sc As op]
+0.4 -0.7 92 -4 -4 1008.2 970.9
09 16.09 ЮВ 3 50 км 6/3 600 м
[Sc Ac As]
-0.1 -2.7 83 -5 -5 1010.6 973.1
12 16.09 В 2 50 км 5/0
[Ac trans]
-3.0 -3.4 97 -7 -7 1012.6 974.7 +0.7
15 16.09 ЮВ 3 50 км 8/0
[Ac trans]
-3.0 -3.4 97 -8 -8 1013.6 975.7
18 16.09 ЮВ 2 50 км 9/0
[Ac trans]
-3.5 -3.6 99 -8 -8 1014.6 976.5
21 16.09 В 1 500 м туман ?/? -3.2 -3.3 99 -6 -6 1015.7 977.5
00 17.09 З 2 500 м туман ?/? -3.4 -3.5 99 -8 -8 1017.5 978.3 +3.7 16
03 17.09 СЗ 2 50 км {снег, туман} 10/0
[Ac As]
-2.2 -2.2 100 -6 -5 1017.1 979.0
06 17.09 СЗ 2 50 км {снег, туман} 9/6 600 м
[Sc Ac As]
-0.9 -1.3 97 -5 -4 1017.9 980.1
09 17.09 З 2 50 км 3/3 600 м
[Sc]
+0.4 -1.8 85 -3 -3 1017.5 979.8
12 17.09 СЗ 2 50 км 5/0
[Ac trans]
-1.2 -2.8 89 -5 -5 1019.0 981.0 +0.8 0.0
15 17.09 СЗ 3 50 км 8/0
[Ac trans]
-1.6 -3.6 86 -7 -7 1018.9 980.9
18 17.09 СЗ 3 50 км 6/0
[Ac trans]
-2.2 -3.7 89 -7 -7 1018.8 980.7
21 17.09 СЗ 3 50 км 8/0
[Ac trans]
-4.0 -5.5 89 -9 -9 1018.3 980.1
00 18.09 СЗ 3 50 км 9/0
[Ac trans]
-3.3 -5.0 88 -9 -8 1017.5 979.3 -4.2 14
03 18.09 СЗ 4 50 км 9/0
[Ac trans]
+0.2 -3.6 76 -5 -4 1016.1 978.5
06 18.09 СЗ 4 50 км 9/0
[Ac trans]
+1.4 -3.7 69 -3 -3 1015.6 978.1
09 18.09 СЗ 3 50 км 9/0
[Ac trans]
+1.3 -4.6 65 -3 -3 1014.8 977.3
12 18.09 С 2 50 км 10/0
[Ac und]
0.0 -4.4 72 -3 -3 1015.3 987.7 +1.7
15 18.09 СЗ 1 50 км 10/0
[Ac und]
-1.6 -3.6 86 -4 -4 1015.0 977.1
18 18.09 СЗ 1 50 км 10/0
[Ac As]
-2.4 -3.6 91 -5 -5 1014.2 976.3
21 18.09 С 2 10 км слаб. снег 10/0
[As op]
-2.0 -2.6 96 -6 -6 1014.1 976.3
00 19.09 СЗ 2 10 км слаб. снег 10/0
[As op]
-1.9 -1.9 100 -6 -6 1014.1 976.3 -2.6 0.2 13
03 19.09 СЗ 2 50 км в посл. час ливневой снег 10/10 600 м
[Frnb Ns]
-0.2 -1.7 90 -4 -4 1013.6 965.9
06 19.09 СЗ 3 50 км {снег} 10/10 600 м
[Frnb Ns]
+0.4 -0.6 93 -4 -4 1014.4 976.9
09 19.09 С 2 50 км {снег} 10/10 600 м
[Frnb Ns]
+0.5 -0.9 90 -3 -3 1015.0 977.4
12 19.09 СЗ 2 20 км слаб. дождь со снегом 10/10 600 м
[Frnb Ns]
+0.1 -0.2 98 -4 -4 1015.7 978.1 +0.6 0.1
15 19.09 СЗ 2 50 км {снег} 10/10 600 м
[Frnb Ns]
-0.2 -0.5 98 -4 -4 1016.3 978.6
18 19.09 СЗ 1 50 км {снег} 10/10 600 м
[Frnb Ns]
-0.7 -1.1 97 -3 -3 1016.8 979.0
21 19.09 З 1 50 км 8/8 600 м
[Sc As op]
-1.4 -2.8 90 -4 -4 1015.8 977.9
00 20.09 Ю 2 50 км 8/3 600 м
[Sc Ac lent]
-2.2 -3.4 91 -6 -6 1015.1 977.1 -2.6 0.1 12

 

Местоположение метеостанции Эйк (Якутия, Россия): широта 66.03 долгота 117.40 высота над уровнем моря 304 м.

В архиве по умолчанию представлена погода в Эйке за последнюю неделю. Архивные данные за месяц целиком и за предыдущие месяцы, начиная с января 2011 года, Вы можете получить, выбрав интересующий диапазон дат из раскрывающегося списка и нажав кнопку "Ввод!".


*Определитесь, кто Вы:
робот инопланетянин человек

Внимание! Время в таблицах - всемирное. Для получения местного времени необходимо прибавить поправку, которая равна 9 ч.

Смотрите также архив погоды в соседних городах и на ближайших метеорологических станциях:

Погода в Шелагонцах (Якутия, Россия) (146 км)
Погода в Чумпуруке (Якутия, Россия) (202 км)
Погода в Полярном (Якутия, Россия) (236 км)
Погода в Айхале (Якутия, Россия) (270 км)
Погода в Жиганске (Якутия, Россия) (275 км)
Погода в Хабардино (Якутия, Россия) (278 км)
Погода в Сухане (Якутия, Россия) (291 км)
Погода в Нюрбе (Якутия, Россия) (309 км)
Погода в Верхневилюйске (Якутия, Россия) (316 км)
Погода в Бестяхской Звероферме (Якутия, Россия) (317 км)

Пояснения к столбцам:

Ветер - указаны скорость ветра в м/с - средняя за 10 мин, порывы в срок и между сроками (в фигурных скобках) и направление, откуда дует ветер: С - северный, СВ - северо-восточный, В - восточный, ЮВ - юго-восточный, Ю - южный, ЮЗ - юго-западный, З - западный, СЗ - северо-западный.
Видимость - горизонтальная дальность видимости в метрах или километрах. При видимости от 1 до 10 км при отсутствии осадков обычно наблюдается дымка, при ухудшении видимости до 1 км и менее - туман. В сухую погоду видимость может ухудшаться дымом, пылью или мглою.
Явления - указаны атмосферные явления, наблюдавшиеся в срок или в последний час перед сроком; фигурными скобками обозначены явления, наблюдавшиеся между сроками (за 1-3 часа до срока); квадратными скобками обозначены град или гололедные отложения с указанием их диаметра в мм.
Облачность - указаны через наклонную черту общая и нижняя облачность в баллах и высота нижней границы облаков в метрах; квадратными скобками обозначены формы облаков: Ci - перистые, Cs - перисто-слоистые, Cc - перисто-кучевые, Ac - высококучевые, As - высокослоистые, Sc - слоисто-кучевые, Ns - слоисто-дождевые, Cu - кучевые, Cb - кучево-дождевые. Подробнее классификацию облаков см. в Атласе облаков (PDF).
T - Температура воздуха - температура, измеренная на высоте 2 м над землей.
Td - Температура точки росы - температура, при понижении до которой содержащийся в воздухе водяной пар достигнет насыщения.
f - Относительная влажность воздуха - влажноcть воздуха, измеренная на высоте 2 м над землей.
Te - Эффективная температура - температура, которую ощущает одетый по сезону человек в тени. Характеристика душности погоды. При расчете учитывается влияние влажности воздуха и скорости ветра на теплоощущения человека.
Tes - Эффективная температура на солнце - температура, которую ощущает человек, с поправкой на солнечный нагрев. Характеристика знойности погоды. Зависит от высоты солнца над горизонтом, облачности и скорости ветра. Ночью, в пасмурную погоду, а также при ветре 12 м/с и более поправка равна нулю.
P - Атмосферное давление - приведенное к уровню моря атмосферное давление.
Po - Атмосферное давление - измеренное на уровне метеостанции атмосферное давление.
Tmin - Минимальная температура - минимум температуры воздуха на высоте 2 м над землей.
Tmax - Максимальная температура - максимум температуры воздуха на высоте 2 м над землей.
R - Количество осадков - Количество выпавших осадков за период времени, мм. При наведении курсора мыши на число - период времени, за который выпало указанное количество осадков.
R24 - Количество осадков - Количество выпавших осадков за 24 часа, мм.
S - Снежный покров - Высота снежного покрова, см. При наведении курсора мыши на число - состояние снежного покрова и степень покрытия местности в баллах.